Location: Tel Aviv
(32.0670°N, 34.7670°E)
Time: 14:18:52
(UTC+03:00)

Explorer 11/Cluster Stage 4 - Pass Details

Date: 14 September 2024
Orbit: 464 x 1208 km, 28.8° (Epoch: 06 October)

Event Time Altitude Azimuth Distance (km) Brightness Sun altitude
Rises 08:45:51 0° 257° (WSW) 3,770 9.6 28.8°
Reaches altitude 10° 08:48:27 10° 255° (WSW) 2,906 9.1 29.4°
Maximum altitude 08:55:45 68° 174° (S) 1,253 8.3 30.9°
Drops below altitude 10° 09:03:41 10° 93° (E) 3,144 11.0 32.5°
Sets 09:06:36 0° 91° (E) 4,094 11.2 33.0°
